Other Public Products
Issued by NWS Grand Forks, ND

Home | Current Version | Previous Version | Graphics & Text | Print | Product List | Glossary On
Versions: 1 2 3 4 5 6 7 8 9 10 11 12 13 14 15 16 17 18 19 20 21 22 23 24 25 26 27 28 29 30 31 32 33 34 35 36 37 38 39 40 41 42 43 44 45 46 47 48 49 50
000
FPUS83 KFGF 310510
OPUFGF
PRAIRIE TO PINES WEATHER ROUNDUP
NATIONAL WEATHER SERVICE EASTERN NORTH DAKOTA/GRAND FORKS ND
1200 AM CDT SUN AUG 31 2014

 **SATELLITE DATA USED TO AUGMENT SKY COVER AT AUTOMATED STATIONS**
 *****  WEATHER ACROSS EASTERN NORTH DAKOTA  *****

CITY           SKY/WX    TMP DP  RH WIND       PRES   REMARKS
GRAND FORKS    CLEAR     59  57  93 S6        29.79R
GRAND FORKS AF PTCLDY    58  57  99 S5        29.79R
GRAND CITY NWS   N/A     59 N/A N/A S7          N/A
BUXTON         NOT AVBL
DEVILS LAKE    MOCLDY    61  54  77 S14       29.75S
FARGO          CLEAR     62  58  86 S8        29.81R
WAHPETON ARPT  CLEAR     55  54  94 SE6       29.82R
$$

 *****  WEATHER ACROSS CENTRAL AND WESTERN NORTH DAKOTA  *****

CITY           SKY/WX    TMP DP  RH WIND       PRES   REMARKS
JAMESTOWN      CLOUDY    60  58  92 SE10      29.75F
BISMARCK       TSTM      62  60  93 E12       29.72R FOG
MINOT          NOT AVBL
MINOT AFB      TSTM      62  60  92 N2        29.69R
GARRISON         N/A     63  60  90 SE9       29.69S
WILLISTON      CLOUDY    60  58  92 NW3       29.69F
DICKINSON      LGT RAIN  62  60  93 S9        29.69S
HETTINGER      LGT RAIN  60  59  96 E15       29.71F
$$

 *****  OTHER OBSERVATIONS NORTHEAST NORTH DAKOTA  *****

CITY           SKY/WX    TMP DP  RH WIND       PRES   REMARKS
WALHALLA         N/A     52  52 100 CALM      29.77R
LANGDON        FAIR      55  50  82 SE7       29.77R
CAVALIER       FAIR      57  54  88 S6        29.77R
GRAFTON        FAIR      57  57 100 S8        29.79R
CANDO          FAIR      61  55  82 SE12      29.76S
FORT TOTTEN      N/A     58  54  86 S7        29.95S
ROLLA          CLOUDY    57  57 100 S9        29.77R
RUGBY          MOCLDY    63  57  82 SE9G16    29.72S
 ***** THE ABOVE OBSERVATIONS ARE NON NWS ARE NOT QUALITY
        CONTROLLED AND MAY MIS-REPORT RAIN FOR SNOW...
$$

 *****  OTHER OBSERVATIONS SOUTHEAST NORTH DAKOTA *****

CITY           SKY/WX    TMP DP  RH WIND       PRES   REMARKS
COOPERSTOWN    NOT AVBL
VALLEY CITY    FAIR      59  59 100 SE10      29.78F
OAKES            N/A     59  59 100 E9        29.77F
GWINNER        CLEAR     61  61 100 SE8       29.81F
SHEYENNE NWR     N/A     57  56  97 SE5       29.95S
BUFFALO        NOT AVBL
WYNDMERE       NOT AVBL
 ***** THE ABOVE OBSERVATIONS ARE NON NWS ARE NOT QUALITY
       CONTROLLED AND MAY MIS-REPORT RAIN FOR SNOW...
$$

  *****  WEATHER ACROSS NORTHERN MINNESOTA  *****

CITY           SKY/WX    TMP DP  RH WIND       PRES   REMARKS
FLAG ISLAND    CLOUDY    64  55  72 SE16      29.80F
WARROAD        CLEAR     55  52  88 SE6       29.81F
ROSEAU         CLEAR     57  52  82 SE7       29.80F
HALLOCK        CLEAR     55  54  94 SE8       29.78R
THF RVR FALLS  CLOUDY    63  59  88 S6        29.81R
HALSTAD          N/A     61  59  93 S6          N/A
FOSSTON        PTCLDY    59  55  88 SE6       29.83R
BAUDETTE       MOCLDY    57  54  89 SE6       29.83F
WASKISH        CLOUDY    61  57  88 E6        29.83F
CROOKSTON      MOCLDY    59  57  94 S7        29.80R
$$
  *****  WEATHER ACROSS CENTRAL AND WEST MINNESOTA  *****

CITY           SKY/WX    TMP DP  RH WIND       PRES   REMARKS
BEMIDJI        CLOUDY    62  60  91 SE7       29.83F
PARK RAPIDS    CLOUDY    62  61  96 SE7       29.83F
WADENA         MOCLDY    61  61 100 E3        29.83S FOG
DETROIT LAKES  CLOUDY    63  61  94 S9        29.85R
MOORHEAD       CLEAR     61  61 100 S6        29.83R
FERGUS FALLS   CLEAR     59  57  94 S3        29.85R
ELBOW LAKE     FAIR      58  57  98 S5        29.85R
MORRIS MN      CLEAR     59  57  94 S5        29.83R FOG
STAPLES        PTCLDY    61  61 100 CALM      29.83F FOG
WHEATON        CLEAR     55  55 100 SE6       29.85R
$$
  *****  WEATHER ELSEWHERE ACROSS MINNESOTA  *****

CITY           SKY/WX    TMP DP  RH WIND       PRES   REMARKS
DULUTH         CLOUDY    60  57  89 SE12      29.91S
INTRNTL FALLS  CLEAR     46  45  96 SE3       29.86S
ELY            CLOUDY    57  55  94 S6        29.91F
CLOQUET        CLOUDY    61  57  88 E7        29.90F
BRAINERD       CLOUDY    63  61  93 SE7       29.85F
HIBBING        CLOUDY    61  58  90 SE7       29.90F
ALEXANDRIA     CLEAR     60  59  96 S6        29.85S
SAINT CLOUD    CLOUDY    67  64  90 SE5       29.85F
MINNEAPOLIS    PTCLDY    66  62  87 SE7       29.88S
$$

  *****  WEATHER ACROSS SOUTH DAKOTA  *****

CITY           SKY/WX    TMP DP  RH WIND       PRES   REMARKS
SIOUX FALLS    CLEAR     66  60  81 SE8       29.83S
BROOKINGS      NOT AVBL
WATERTOWN      CLEAR     59  57  93 SE7       29.82R
HURON          CLEAR     64  59  83 SE10      29.74F
SISSETON         N/A     58  58 100 S5        29.81R
ABERDEEN       PTCLDY    60  59  96 SE9       29.75F
MITCHELL       CLEAR     66  62  87 SE14      29.77F
PIERRE         CLOUDY    69  64  84 SE10      29.66R
MOBRIDGE       LGT RAIN  64  63  96 SE12      29.67F
RAPID CITY     CLOUDY    67  53  61 N14       29.78F
$$

  *****  SOME WEATHER IN NEARBY STATES *****

CITY           SKY/WX    TMP DP  RH WIND       PRES   REMARKS
GLASGOW MT     MOCLDY    60  57  89 E6        29.70R
GREAT FALLS MT MOCLDY    54  41  61 SW8       29.80R
CHEYENNE WY    MOCLDY    56  47  71 W9        30.01F
SCOTTSBLUFF NE CLOUDY    69  51  52 S8        29.86F
OMAHA NE       CLEAR     70  64  81 SE5       29.86F
DES MOINES IA  CLEAR     69  65  86 CALM      29.88F
DAVENPORT IA   CLEAR     66  64  93 S3        29.92R
CHICAGO IL     MOCLDY    73  64  73 CALM      29.92R
EAU CLAIRE WI  FOG       59  59 100 CALM      29.90S VSB 3/4
LA CROSSE WI   PTCLDY    66  63  90 CALM      29.90S
$$

  *****  SOME NATIONAL WEATHER *****

CITY           SKY/WX    TMP DP  RH WIND       PRES   REMARKS
LA GUARDIA NY  CLOUDY    74  65  73 SW7       30.15S
RALEIGH NC     MOCLDY    77  71  82 S7        30.18S
ATLANTA GA     CLOUDY    74  71  91 NW6       30.16R
NEW ORLEANS LA CLOUDY    76  73  91 SE6       30.04F
OKLAHOMA CITY  CLEAR     77  67  71 S8        29.93R
ALBUQUERQUE NM PTCLDY    76  42  29 S9        30.04F
SALT LAKE CITY CLOUDY    71  47  42 W3        29.82R
LOS ANGELES CA PTCLDY    71  65  81 NW6       29.77S
BOISE ID       CLOUDY    59  51  75 W5        29.92F
SEATTLE WA     LGT RAIN  60  57  89 SE6       29.98R FOG
$$

*** WEATHER ACROSS MANITOBA...SASKATCHEWAN AND ONTARIO ***
                ***ONTARIO***

CITY           SKY/WX    TMP DP  RH WIND       PRES   REMARKS
GERALDTON      PTCLDY    55  52  88 E3        29.94R
THUNDER BAY    MOCLDY    52  52 100 SW3       29.92R
SIOUX LOOKOUT  CLEAR     54  50  87 SE5       29.90S
TORONTO        PTCLDY    75  66  73 SW12      29.89R
BIG TROUT LK   CLEAR     52  46  82 SE6       29.90S
PICKLE LAKE    NOT AVBL
DRYDEN         CLEAR     55  50  82 SE8       29.88S
KENORA         PTCLDY    55  50  82 SE8       29.84F
$$
                *** MANITOBA***

CITY           SKY/WX    TMP DP  RH WIND       PRES   REMARKS
BRANDON        CLOUDY    59  52  77 SE8       29.73R
DAUPHIN        CLOUDY    57  55  94 E6        29.67F
ISLAND LAKE    PTCLDY    55  48  76 E6        29.83S
PILOT MOUND      N/A     55  50  82 SE8         N/A
THE PAS        CLOUDY    59  55  88 S14       29.59S
THOMPSON       CLOUDY    57  50  77 SE6       29.70F
WINNIPEG       CLEAR     59  52  77 SE12      29.78S
LYNN LAKE      LGT RAIN  54  52  94 MISG      29.59F
CHURCHILL      PTCLDY    46  41  81 S9        29.82S
GILLAM         MOCLDY    50  46  87 S6        29.80S
$$
                ***SASKATCHEWAN***

CITY           SKY/WX    TMP DP  RH WIND       PRES   REMARKS
ESTEVAN        CLOUDY    59  59 100 CALM      29.70R
KINDERSLEY     PTCLDY    54  43  66 NW3       29.69S
LLOYDMINSTER   CLEAR     48  43  81 W8        29.65F
PRINCE ALBERT  PTCLDY    50  50 100 VRB2      29.63R FOG
REGINA         NOT AVBL



USA.gov is the U.S. government's official web portal to all federal, state and local government web resources and services.